GFSNE_prec_precacc_120.txt.gz
Total_Precipitation_Accumulation
1.42 1.35 1.29 1.17 1.28 1.40 1.57 1.88 2.40 2.23 1.42 0.92 0.89 0.88 0.88 0.90 1.06 0.95 0.78 0.99 1.04 1.02 1.03 1.08 0.96 1.01 0.99 1.05 1.18 1.12 1.35 1.62 1.57 1.47 1.48 1.57 1.41 1.35
1.42 1.46 1.47 1.41 1.38 1.31 1.28 1.40 1.59 1.96 1.82 1.04 0.94 0.99 1.15 1.34 1.72 1.70 1.61 1.81 1.42 1.20 1.12 0.90 0.74 0.62 0.56 0.58 0.62 0.64 0.76 1.01 1.22 1.30 1.34 1.52 1.89 1.80
1.59 1.84 1.95 2.06 2.26 2.24 2.29 2.45 2.58 2.69 2.66 1.72 1.37 1.27 1.25 1.25 1.24 1.14 1.19 1.17 1.24 1.43 1.18 0.96 0.75 0.60 0.48 0.45 0.44 0.43 0.45 0.52 0.68 0.81 0.95 1.00 1.06 1.29
0.55 0.71 0.79 0.95 1.21 1.42 1.66 1.82 2.16 2.62 3.05 2.42 1.77 1.61 1.48 1.33 1.12 0.87 0.80 0.85 0.88 1.19 1.16 1.05 0.96 0.81 0.70 0.66 0.56 0.48 0.41 0.38 0.39 0.43 0.47 0.52 0.62 0.67
0.36 0.41 0.44 0.47 0.54 0.58 0.69 0.87 1.03 1.18 1.42 1.38 1.09 1.00 1.02 1.15 1.25 1.17 1.04 0.95 0.88 1.14 1.05 1.01 1.04 0.97 0.88 0.81 0.79 0.77 0.62 0.41 0.31 0.27 0.30 0.34 0.46 0.59
0.13 0.15 0.22 0.31 0.43 0.62 0.86 0.96 0.92 0.80 0.72 0.65 0.60 0.53 0.50 0.54 0.64 0.68 0.65 0.57 0.49 0.50 0.57 0.57 0.64 0.65 0.69 0.72 0.63 0.57 0.59 0.56 0.54 0.47 0.35 0.31 0.34 0.48
0.26 0.31 0.37 0.49 0.57 0.53 0.45 0.36 0.37 0.41 0.43 0.47 0.42 0.33 0.28 0.25 0.26 0.29 0.32 0.38 0.44 0.49 0.41 0.33 0.27 0.23 0.28 0.40 0.52 0.60 0.56 0.51 0.46 0.45 0.43 0.40 0.39 0.50
0.34 0.37 0.41 0.50 0.40 0.39 0.30 0.26 0.22 0.26 0.25 0.21 0.16 0.12 0.09 0.11 0.15 0.22 0.32 0.43 0.44 0.32 0.32 0.30 0.26 0.21 0.15 0.15 0.27 0.39 0.46 0.44 0.38 0.33 0.36 0.44 0.47 0.45
0.25 0.23 0.20 0.19 0.17 0.13 0.19 0.21 0.25 0.23 0.18 0.12 0.08 0.06 0.07 0.07 0.15 0.19 0.17 0.19 0.14 0.10 0.22 0.30 0.29 0.30 0.22 0.23 0.24 0.18 0.29 0.34 0.33 0.31 0.33 0.37 0.41 0.52
0.15 0.13 0.09 0.04 0.03 0.03 0.05 0.11 0.08 0.11 0.16 0.18 0.16 0.16 0.19 0.21 0.25 0.29 0.15 0.11 0.10 0.08 0.14 0.22 0.16 0.22 0.20 0.22 0.31 0.27 0.30 0.31 0.31 0.32 0.30 0.32 0.38 0.41
0.07 0.02 0.01 0.00 0.03 0.03 0.04 0.02 0.00 0.01 0.09 0.17 0.26 0.36 0.43 0.44 0.34 0.30 0.34 0.34 0.27 0.13 0.09 0.10 0.09 0.14 0.16 0.17 0.20 0.29 0.31 0.37 0.42 0.48 0.39 0.33 0.35 0.40
0.00 0.00 0.02 0.01 0.03 0.06 0.05 0.02 0.01 0.01 0.05 0.05 0.08 0.16 0.26 0.32 0.36 0.23 0.17 0.31 0.33 0.40 0.27 0.33 0.18 0.13 0.28 0.13 0.15 0.22 0.24 0.28 0.30 0.35 0.58 0.61 0.47 0.43
0.01 0.00 0.00 0.02 0.06 0.07 0.07 0.03 0.04 0.05 0.05 0.04 0.04 0.10 0.17 0.27 0.31 0.31 0.30 0.39 0.47 0.33 0.14 0.50 0.58 0.30 0.47 0.18 0.06 0.11 0.12 0.16 0.20 0.23 0.31 0.44 0.60 0.53
0.03 0.02 0.01 0.05 0.06 0.05 0.06 0.06 0.08 0.09 0.04 0.03 0.04 0.06 0.13 0.19 0.25 0.30 0.38 0.47 0.49 0.51 0.27 0.34 0.74 0.33 0.55 0.39 0.17 0.11 0.12 0.11 0.14 0.16 0.21 0.39 0.51 0.51
0.04 0.05 0.07 0.07 0.07 0.05 0.06 0.08 0.08 0.06 0.03 0.04 0.04 0.06 0.07 0.12 0.21 0.36 0.47 0.50 0.57 0.60 0.54 0.53 0.61 0.49 0.63 0.59 0.32 0.14 0.21 0.20 0.14 0.14 0.21 0.35 0.47 0.50
0.07 0.09 0.12 0.10 0.10 0.09 0.10 0.10 0.08 0.08 0.09 0.11 0.09 0.08 0.11 0.16 0.22 0.30 0.38 0.40 0.48 0.45 0.51 0.54 0.51 0.65 0.81 0.56 0.54 0.36 0.19 0.30 0.30 0.26 0.31 0.32 0.39 0.48
0.33 0.21 0.16 0.11 0.10 0.10 0.10 0.11 0.16 0.16 0.17 0.15 0.19 0.21 0.18 0.18 0.19 0.18 0.28 0.40 0.53 0.43 0.37 0.39 0.47 0.51 0.54 0.52 0.68 0.41 0.28 0.20 0.21 0.35 0.44 0.44 0.36 0.52
0.39 0.25 0.15 0.12 0.11 0.11 0.14 0.18 0.21 0.25 0.24 0.27 0.28 0.30 0.33 0.31 0.29 0.30 0.30 0.35 0.42 0.35 0.41 0.44 0.44 0.62 0.63 0.55 0.51 0.51 0.47 0.27 0.18 0.20 0.34 0.72 0.40 0.26
0.37 0.14 0.10 0.11 0.12 0.14 0.17 0.19 0.19 0.17 0.26 0.37 0.45 0.44 0.48 0.49 0.50 0.41 0.35 0.40 0.38 0.37 0.43 0.47 0.64 0.94 1.05 0.56 0.35 0.35 0.69 0.58 0.32 0.26 0.31 0.45 0.50 0.31
0.18 0.11 0.07 0.08 0.15 0.20 0.21 0.26 0.27 0.29 0.33 0.34 0.41 0.44 0.54 0.63 0.53 0.40 0.37 0.42 0.43 0.40 0.43 0.45 0.53 0.71 1.16 0.78 0.70 0.39 0.38 0.74 0.85 0.59 0.36 0.32 0.48 0.44
0.07 0.13 0.09 0.10 0.17 0.24 0.28 0.32 0.37 0.39 0.39 0.47 0.42 0.40 0.41 0.62 0.53 0.39 0.44 0.38 0.44 0.48 0.42 0.26 0.22 0.44 0.75 1.00 1.05 0.57 0.50 0.52 0.75 1.09 0.83 0.66 0.36 0.33
0.09 0.17 0.19 0.18 0.25 0.30 0.34 0.36 0.42 0.38 0.34 0.33 0.31 0.32 0.38 0.51 0.62 0.53 0.47 0.57 0.38 0.27 0.30 0.30 0.47 0.57 0.74 0.98 0.63 0.34 0.37 0.42 0.48 0.50 0.66 1.18 1.22 0.94
0.23 0.28 0.28 0.30 0.32 0.38 0.45 0.44 0.35 0.27 0.24 0.29 0.32 0.32 0.40 0.55 0.42 0.44 0.47 0.47 0.43 0.50 0.43 0.44 0.47 0.52 0.58 0.58 0.62 0.56 0.44 0.40 0.34 0.37 0.41 0.41 0.41 0.43

GFSNE_prec_precacc_126.txt.gz
Total_Precipitation_Accumulation
1.42 1.35 1.29 1.17 1.28 1.40 1.57 1.88 2.40 2.23 1.42 0.92 0.89 0.88 0.88 0.90 1.06 0.95 0.78 0.99 1.05 1.03 1.04 1.10 0.99 1.03 1.00 1.06 1.19 1.13 1.37 1.66 1.64 1.61 1.68 1.79 1.63 1.59
1.42 1.46 1.47 1.41 1.38 1.31 1.28 1.40 1.59 1.96 1.82 1.04 0.94 0.99 1.15 1.34 1.72 1.70 1.61 1.81 1.43 1.21 1.14 0.93 0.80 0.66 0.59 0.61 0.65 0.66 0.77 1.04 1.26 1.34 1.42 1.67 2.11 2.05
1.59 1.84 1.95 2.06 2.26 2.24 2.29 2.45 2.58 2.69 2.66 1.72 1.37 1.27 1.25 1.25 1.24 1.14 1.19 1.17 1.25 1.45 1.23 1.09 0.87 0.70 0.63 0.57 0.53 0.50 0.50 0.56 0.73 0.87 1.03 1.08 1.17 1.48
0.55 0.71 0.79 0.95 1.21 1.42 1.66 1.82 2.16 2.62 3.05 2.42 1.77 1.61 1.48 1.33 1.12 0.87 0.80 0.85 0.89 1.20 1.20 1.13 1.04 0.94 0.92 0.92 0.81 0.68 0.57 0.50 0.47 0.49 0.55 0.67 0.74 0.79
0.36 0.41 0.44 0.47 0.54 0.58 0.69 0.87 1.03 1.18 1.42 1.39 1.09 1.00 1.02 1.15 1.25 1.17 1.04 0.95 0.88 1.15 1.06 1.04 1.08 1.05 0.96 0.90 0.92 0.98 0.96 0.76 0.54 0.45 0.45 0.45 0.62 0.78
0.13 0.15 0.22 0.31 0.43 0.62 0.86 0.96 0.92 0.80 0.72 0.65 0.60 0.53 0.50 0.54 0.64 0.68 0.65 0.57 0.49 0.50 0.57 0.57 0.65 0.69 0.78 0.81 0.73 0.70 0.78 0.94 1.04 0.94 0.73 0.63 0.59 0.65
0.26 0.31 0.37 0.49 0.57 0.53 0.45 0.36 0.37 0.41 0.43 0.47 0.43 0.33 0.28 0.25 0.26 0.29 0.33 0.39 0.44 0.49 0.41 0.33 0.27 0.23 0.28 0.43 0.59 0.72 0.73 0.77 0.85 0.96 1.00 0.92 0.88 0.93
0.34 0.37 0.41 0.50 0.40 0.39 0.30 0.26 0.22 0.26 0.25 0.21 0.17 0.12 0.09 0.11 0.15 0.23 0.32 0.44 0.44 0.32 0.32 0.30 0.26 0.21 0.16 0.16 0.28 0.41 0.54 0.62 0.66 0.68 0.81 0.99 0.97 0.90
0.25 0.23 0.20 0.19 0.17 0.13 0.19 0.21 0.25 0.23 0.18 0.12 0.08 0.06 0.07 0.07 0.16 0.20 0.18 0.20 0.15 0.10 0.22 0.30 0.29 0.30 0.22 0.24 0.25 0.23 0.33 0.41 0.47 0.55 0.64 0.70 0.84 1.03
0.15 0.13 0.09 0.04 0.03 0.03 0.05 0.11 0.08 0.11 0.16 0.18 0.16 0.16 0.20 0.22 0.26 0.30 0.16 0.12 0.10 0.08 0.14 0.22 0.16 0.22 0.20 0.22 0.32 0.30 0.33 0.34 0.36 0.40 0.47 0.58 0.66 0.73
0.07 0.02 0.01 0.00 0.03 0.03 0.05 0.02 0.00 0.01 0.09 0.17 0.26 0.37 0.44 0.44 0.34 0.30 0.35 0.35 0.27 0.13 0.09 0.10 0.09 0.14 0.16 0.17 0.20 0.29 0.32 0.37 0.43 0.50 0.44 0.44 0.54 0.63
0.00 0.00 0.02 0.01 0.03 0.06 0.05 0.03 0.03 0.01 0.05 0.06 0.08 0.16 0.26 0.32 0.36 0.23 0.17 0.32 0.34 0.41 0.27 0.33 0.18 0.14 0.29 0.13 0.15 0.22 0.24 0.28 0.30 0.36 0.59 0.66 0.56 0.56
0.01 0.00 0.00 0.02 0.06 0.07 0.08 0.04 0.05 0.06 0.05 0.04 0.04 0.10 0.17 0.27 0.31 0.31 0.30 0.39 0.48 0.34 0.14 0.53 0.60 0.31 0.48 0.19 0.06 0.11 0.12 0.16 0.20 0.24 0.32 0.46 0.66 0.64
0.03 0.02 0.01 0.05 0.07 0.07 0.07 0.06 0.08 0.09 0.04 0.03 0.04 0.06 0.13 0.19 0.25 0.30 0.39 0.47 0.49 0.52 0.28 0.36 0.78 0.34 0.57 0.40 0.17 0.11 0.12 0.11 0.14 0.16 0.21 0.40 0.54 0.61
0.04 0.06 0.07 0.07 0.08 0.06 0.06 0.08 0.08 0.06 0.03 0.04 0.04 0.06 0.07 0.12 0.21 0.36 0.47 0.50 0.57 0.60 0.54 0.53 0.62 0.50 0.65 0.61 0.33 0.14 0.21 0.20 0.14 0.14 0.21 0.35 0.48 0.58
0.07 0.09 0.12 0.11 0.11 0.09 0.10 0.10 0.08 0.08 0.09 0.11 0.09 0.08 0.11 0.16 0.23 0.30 0.39 0.41 0.49 0.45 0.51 0.54 0.52 0.66 0.82 0.57 0.55 0.37 0.19 0.30 0.30 0.26 0.31 0.32 0.40 0.52
0.33 0.22 0.17 0.11 0.10 0.10 0.10 0.11 0.16 0.16 0.17 0.15 0.19 0.21 0.19 0.19 0.19 0.18 0.29 0.40 0.54 0.44 0.38 0.39 0.47 0.51 0.54 0.53 0.69 0.41 0.28 0.20 0.22 0.36 0.45 0.44 0.36 0.55
0.40 0.26 0.15 0.12 0.11 0.11 0.14 0.18 0.21 0.25 0.24 0.27 0.29 0.30 0.33 0.31 0.30 0.30 0.31 0.37 0.44 0.36 0.42 0.44 0.45 0.62 0.63 0.55 0.52 0.52 0.48 0.28 0.19 0.20 0.34 0.73 0.41 0.27
0.37 0.14 0.10 0.11 0.12 0.14 0.17 0.19 0.19 0.17 0.26 0.37 0.45 0.45 0.49 0.50 0.51 0.42 0.36 0.41 0.40 0.38 0.44 0.48 0.65 0.96 1.09 0.57 0.35 0.35 0.70 0.60 0.33 0.27 0.32 0.46 0.50 0.31
0.18 0.11 0.07 0.08 0.15 0.20 0.21 0.26 0.28 0.29 0.33 0.35 0.41 0.45 0.55 0.65 0.55 0.41 0.37 0.43 0.45 0.41 0.43 0.45 0.54 0.72 1.20 0.81 0.73 0.40 0.38 0.74 0.85 0.59 0.36 0.33 0.49 0.44
0.07 0.13 0.09 0.10 0.17 0.24 0.29 0.33 0.38 0.40 0.39 0.49 0.44 0.43 0.43 0.66 0.55 0.39 0.45 0.39 0.46 0.50 0.44 0.26 0.22 0.45 0.80 1.04 1.07 0.57 0.50 0.52 0.75 1.09 0.83 0.67 0.37 0.34
0.09 0.17 0.19 0.18 0.25 0.30 0.34 0.37 0.43 0.39 0.35 0.34 0.31 0.34 0.39 0.54 0.64 0.55 0.48 0.59 0.39 0.28 0.31 0.31 0.47 0.58 0.75 1.00 0.64 0.34 0.37 0.42 0.48 0.50 0.66 1.19 1.25 0.97
0.23 0.28 0.28 0.30 0.33 0.38 0.45 0.45 0.37 0.28 0.25 0.31 0.33 0.34 0.42 0.58 0.44 0.46 0.49 0.49 0.44 0.52 0.44 0.45 0.48 0.53 0.59 0.59 0.63 0.57 0.44 0.40 0.34 0.37 0.41 0.41 0.41 0.43

GFSNE_prec_precacc_129.txt.gz
Total_Precipitation_Accumulation
1.42 1.35 1.29 1.17 1.28 1.40 1.57 1.88 2.40 2.23 1.42 0.92 0.89 0.88 0.88 0.90 1.06 0.95 0.78 0.99 1.05 1.03 1.04 1.10 0.99 1.03 1.00 1.06 1.19 1.13 1.37 1.67 1.64 1.61 1.68 1.79 1.64 1.62
1.42 1.46 1.47 1.41 1.38 1.31 1.28 1.40 1.59 1.96 1.82 1.04 0.94 0.99 1.15 1.34 1.72 1.70 1.61 1.81 1.43 1.21 1.14 0.93 0.80 0.66 0.59 0.61 0.65 0.66 0.77 1.04 1.26 1.35 1.42 1.67 2.12 2.06
1.59 1.84 1.95 2.06 2.26 2.24 2.29 2.45 2.58 2.69 2.66 1.72 1.37 1.27 1.25 1.25 1.24 1.14 1.19 1.17 1.25 1.45 1.23 1.09 0.87 0.70 0.63 0.57 0.53 0.50 0.50 0.56 0.73 0.87 1.03 1.08 1.17 1.49
0.55 0.71 0.79 0.95 1.21 1.42 1.66 1.82 2.16 2.62 3.05 2.42 1.77 1.61 1.48 1.33 1.12 0.87 0.80 0.85 0.89 1.20 1.20 1.13 1.04 0.94 0.92 0.92 0.81 0.68 0.57 0.50 0.47 0.49 0.55 0.67 0.75 0.79
0.36 0.41 0.44 0.47 0.54 0.58 0.69 0.87 1.03 1.18 1.42 1.39 1.09 1.00 1.02 1.15 1.25 1.17 1.04 0.95 0.88 1.15 1.06 1.04 1.08 1.05 0.96 0.90 0.92 0.98 0.96 0.76 0.54 0.45 0.45 0.46 0.63 0.79
0.13 0.15 0.22 0.31 0.43 0.62 0.86 0.96 0.92 0.80 0.72 0.65 0.60 0.53 0.50 0.54 0.64 0.68 0.65 0.57 0.49 0.50 0.57 0.57 0.65 0.69 0.78 0.81 0.73 0.70 0.78 0.94 1.05 0.95 0.74 0.65 0.60 0.66
0.26 0.31 0.37 0.49 0.57 0.53 0.45 0.36 0.37 0.41 0.43 0.47 0.43 0.33 0.28 0.25 0.26 0.29 0.33 0.39 0.44 0.49 0.41 0.33 0.27 0.23 0.28 0.43 0.59 0.72 0.73 0.77 0.85 0.96 1.00 0.93 0.90 0.94
0.34 0.37 0.41 0.50 0.40 0.39 0.30 0.26 0.22 0.26 0.25 0.21 0.17 0.12 0.09 0.11 0.15 0.23 0.32 0.44 0.44 0.32 0.32 0.30 0.26 0.21 0.16 0.16 0.28 0.41 0.54 0.62 0.66 0.68 0.81 0.99 0.98 0.92
0.25 0.23 0.20 0.19 0.17 0.13 0.19 0.21 0.25 0.23 0.18 0.12 0.08 0.06 0.07 0.07 0.16 0.20 0.19 0.21 0.15 0.10 0.22 0.30 0.29 0.30 0.22 0.24 0.25 0.23 0.33 0.41 0.47 0.55 0.64 0.70 0.84 1.04
0.15 0.13 0.09 0.04 0.03 0.03 0.05 0.11 0.08 0.11 0.16 0.18 0.16 0.16 0.20 0.22 0.27 0.31 0.17 0.12 0.10 0.08 0.14 0.22 0.16 0.22 0.20 0.22 0.32 0.30 0.33 0.34 0.36 0.40 0.47 0.58 0.66 0.73
0.07 0.02 0.01 0.00 0.03 0.03 0.05 0.02 0.00 0.01 0.09 0.17 0.26 0.37 0.44 0.44 0.34 0.30 0.35 0.35 0.27 0.13 0.09 0.10 0.09 0.14 0.16 0.17 0.20 0.29 0.32 0.37 0.43 0.50 0.44 0.44 0.54 0.63
0.00 0.00 0.02 0.01 0.03 0.06 0.05 0.03 0.04 0.01 0.05 0.06 0.08 0.16 0.26 0.32 0.36 0.23 0.17 0.32 0.35 0.42 0.27 0.34 0.18 0.14 0.29 0.13 0.15 0.22 0.24 0.28 0.30 0.36 0.59 0.66 0.56 0.56
0.01 0.00 0.00 0.02 0.06 0.07 0.08 0.04 0.06 0.06 0.05 0.04 0.04 0.10 0.17 0.27 0.31 0.31 0.30 0.39 0.48 0.35 0.14 0.54 0.61 0.31 0.50 0.19 0.06 0.11 0.12 0.16 0.20 0.24 0.32 0.46 0.66 0.64
0.03 0.02 0.01 0.05 0.07 0.07 0.07 0.06 0.08 0.09 0.04 0.03 0.04 0.06 0.13 0.19 0.25 0.30 0.39 0.47 0.49 0.52 0.28 0.37 0.80 0.35 0.59 0.42 0.18 0.11 0.12 0.11 0.14 0.16 0.21 0.40 0.54 0.61
0.04 0.06 0.07 0.07 0.08 0.06 0.06 0.08 0.08 0.06 0.03 0.04 0.04 0.06 0.07 0.12 0.21 0.36 0.47 0.50 0.57 0.60 0.54 0.53 0.62 0.51 0.68 0.64 0.34 0.14 0.22 0.20 0.14 0.14 0.21 0.35 0.48 0.58
0.07 0.09 0.12 0.12 0.11 0.09 0.10 0.10 0.08 0.08 0.09 0.11 0.09 0.08 0.11 0.16 0.23 0.30 0.40 0.41 0.50 0.46 0.51 0.54 0.52 0.67 0.84 0.58 0.56 0.38 0.20 0.30 0.30 0.27 0.31 0.32 0.40 0.52
0.33 0.22 0.17 0.11 0.10 0.10 0.10 0.11 0.16 0.16 0.17 0.15 0.19 0.21 0.19 0.19 0.20 0.18 0.29 0.41 0.55 0.44 0.38 0.39 0.48 0.52 0.55 0.54 0.70 0.42 0.28 0.21 0.22 0.36 0.45 0.45 0.36 0.55
0.40 0.26 0.15 0.12 0.11 0.11 0.14 0.18 0.21 0.25 0.24 0.27 0.29 0.30 0.33 0.32 0.30 0.31 0.32 0.38 0.45 0.37 0.42 0.44 0.45 0.63 0.63 0.55 0.52 0.52 0.49 0.28 0.19 0.20 0.34 0.73 0.41 0.27
0.37 0.14 0.10 0.11 0.12 0.14 0.17 0.19 0.19 0.17 0.26 0.37 0.46 0.45 0.49 0.50 0.51 0.43 0.36 0.42 0.41 0.38 0.44 0.48 0.66 0.97 1.10 0.57 0.35 0.36 0.71 0.60 0.33 0.27 0.32 0.46 0.51 0.31
0.18 0.11 0.07 0.08 0.15 0.20 0.21 0.26 0.28 0.29 0.34 0.35 0.42 0.45 0.56 0.66 0.56 0.42 0.38 0.44 0.45 0.42 0.43 0.46 0.55 0.73 1.22 0.82 0.75 0.40 0.38 0.74 0.85 0.59 0.36 0.33 0.49 0.44
0.07 0.13 0.09 0.10 0.17 0.24 0.29 0.33 0.39 0.40 0.40 0.49 0.44 0.44 0.44 0.67 0.56 0.40 0.46 0.40 0.47 0.52 0.45 0.27 0.22 0.46 0.80 1.05 1.08 0.57 0.50 0.52 0.75 1.09 0.83 0.69 0.38 0.34
0.09 0.17 0.19 0.18 0.25 0.30 0.35 0.38 0.44 0.39 0.35 0.34 0.32 0.34 0.40 0.55 0.65 0.55 0.49 0.60 0.39 0.29 0.31 0.31 0.47 0.58 0.76 1.02 0.65 0.34 0.37 0.42 0.48 0.50 0.66 1.20 1.27 0.99
0.23 0.28 0.28 0.30 0.33 0.38 0.45 0.46 0.38 0.28 0.25 0.31 0.34 0.34 0.43 0.59 0.44 0.47 0.50 0.50 0.45 0.52 0.44 0.46 0.48 0.53 0.60 0.59 0.63 0.57 0.44 0.40 0.34 0.37 0.41 0.41 0.41 0.43

GFSNE_prec_precacc_135.txt.gz
Total_Precipitation_Accumulation
1.42 1.35 1.29 1.17 1.28 1.40 1.57 1.88 2.40 2.23 1.42 0.92 0.89 0.88 0.88 0.90 1.06 0.95 0.78 0.99 1.05 1.03 1.04 1.10 0.99 1.03 1.00 1.06 1.19 1.13 1.37 1.67 1.64 1.61 1.69 1.80 1.65 1.62
1.42 1.46 1.47 1.41 1.38 1.31 1.28 1.40 1.59 1.96 1.82 1.04 0.94 0.99 1.15 1.34 1.72 1.70 1.61 1.81 1.43 1.21 1.14 0.93 0.80 0.66 0.59 0.61 0.65 0.66 0.77 1.04 1.26 1.35 1.42 1.67 2.12 2.07
1.59 1.84 1.95 2.06 2.26 2.24 2.29 2.45 2.58 2.69 2.66 1.72 1.37 1.27 1.25 1.25 1.24 1.14 1.19 1.17 1.25 1.45 1.23 1.09 0.87 0.70 0.63 0.57 0.53 0.50 0.50 0.56 0.73 0.87 1.03 1.08 1.18 1.50
0.55 0.71 0.79 0.95 1.21 1.42 1.66 1.82 2.16 2.62 3.05 2.42 1.77 1.61 1.48 1.33 1.12 0.87 0.80 0.85 0.89 1.20 1.20 1.13 1.04 0.94 0.92 0.92 0.81 0.68 0.57 0.50 0.47 0.49 0.55 0.68 0.75 0.80
0.36 0.41 0.44 0.47 0.54 0.58 0.69 0.87 1.03 1.18 1.42 1.39 1.09 1.00 1.02 1.15 1.25 1.17 1.04 0.95 0.88 1.15 1.06 1.04 1.08 1.05 0.96 0.90 0.92 0.98 0.96 0.76 0.54 0.45 0.45 0.46 0.63 0.79
0.13 0.15 0.22 0.31 0.43 0.62 0.86 0.96 0.92 0.80 0.72 0.65 0.60 0.53 0.50 0.54 0.64 0.68 0.65 0.57 0.49 0.50 0.57 0.57 0.65 0.69 0.78 0.81 0.73 0.70 0.78 0.94 1.05 0.95 0.74 0.65 0.60 0.66
0.26 0.31 0.37 0.49 0.57 0.53 0.45 0.36 0.37 0.41 0.43 0.47 0.43 0.33 0.28 0.25 0.26 0.29 0.33 0.39 0.44 0.49 0.41 0.33 0.27 0.23 0.28 0.43 0.59 0.72 0.73 0.77 0.85 0.96 1.00 0.93 0.90 0.94
0.34 0.37 0.41 0.50 0.40 0.39 0.30 0.26 0.22 0.26 0.25 0.21 0.17 0.12 0.09 0.11 0.15 0.23 0.32 0.44 0.44 0.32 0.32 0.30 0.26 0.21 0.16 0.16 0.28 0.41 0.54 0.62 0.66 0.68 0.81 0.99 0.98 0.92
0.25 0.23 0.20 0.19 0.17 0.13 0.19 0.21 0.25 0.23 0.18 0.12 0.09 0.06 0.07 0.07 0.16 0.20 0.19 0.21 0.15 0.10 0.22 0.30 0.29 0.30 0.22 0.24 0.25 0.23 0.33 0.41 0.47 0.55 0.64 0.70 0.84 1.04
0.15 0.13 0.09 0.04 0.03 0.03 0.05 0.11 0.08 0.11 0.16 0.18 0.16 0.16 0.20 0.22 0.27 0.31 0.17 0.13 0.10 0.08 0.14 0.22 0.16 0.22 0.20 0.22 0.32 0.30 0.33 0.34 0.36 0.40 0.47 0.58 0.66 0.73
0.07 0.02 0.01 0.00 0.03 0.03 0.05 0.02 0.00 0.01 0.09 0.17 0.26 0.37 0.44 0.45 0.34 0.31 0.35 0.35 0.27 0.13 0.09 0.10 0.09 0.14 0.16 0.17 0.20 0.29 0.32 0.37 0.43 0.50 0.44 0.44 0.54 0.63
0.01 0.00 0.02 0.01 0.03 0.06 0.05 0.03 0.04 0.01 0.05 0.06 0.08 0.16 0.26 0.32 0.36 0.23 0.17 0.32 0.35 0.42 0.27 0.34 0.18 0.15 0.30 0.13 0.15 0.22 0.24 0.28 0.30 0.36 0.59 0.66 0.56 0.56
0.01 0.00 0.00 0.02 0.06 0.07 0.08 0.04 0.06 0.07 0.06 0.04 0.04 0.10 0.17 0.27 0.31 0.31 0.30 0.39 0.48 0.35 0.14 0.54 0.62 0.32 0.51 0.20 0.06 0.11 0.12 0.16 0.20 0.24 0.32 0.46 0.66 0.64
0.03 0.02 0.01 0.05 0.07 0.07 0.08 0.06 0.09 0.10 0.05 0.03 0.04 0.06 0.13 0.19 0.25 0.30 0.39 0.47 0.49 0.52 0.28 0.37 0.80 0.35 0.62 0.44 0.18 0.11 0.12 0.11 0.14 0.16 0.21 0.40 0.54 0.61
0.04 0.06 0.07 0.07 0.08 0.06 0.06 0.08 0.08 0.06 0.03 0.04 0.04 0.06 0.07 0.12 0.21 0.36 0.47 0.50 0.57 0.60 0.54 0.53 0.62 0.51 0.71 0.67 0.35 0.14 0.22 0.20 0.14 0.14 0.21 0.35 0.48 0.58
0.07 0.09 0.12 0.12 0.11 0.09 0.10 0.10 0.08 0.08 0.09 0.11 0.09 0.08 0.11 0.16 0.23 0.30 0.40 0.41 0.50 0.46 0.51 0.54 0.52 0.67 0.85 0.59 0.59 0.40 0.20 0.31 0.30 0.27 0.31 0.32 0.40 0.52
0.33 0.22 0.17 0.11 0.10 0.11 0.10 0.11 0.16 0.16 0.17 0.15 0.19 0.21 0.19 0.19 0.20 0.18 0.30 0.41 0.56 0.45 0.38 0.39 0.48 0.52 0.55 0.54 0.71 0.42 0.28 0.21 0.22 0.36 0.45 0.45 0.36 0.55
0.40 0.26 0.15 0.12 0.12 0.12 0.14 0.18 0.21 0.25 0.24 0.27 0.29 0.30 0.34 0.32 0.31 0.31 0.32 0.39 0.46 0.37 0.42 0.44 0.45 0.63 0.64 0.55 0.52 0.52 0.49 0.28 0.19 0.20 0.34 0.74 0.41 0.27
0.38 0.14 0.10 0.12 0.13 0.14 0.17 0.19 0.19 0.17 0.26 0.37 0.46 0.46 0.50 0.51 0.52 0.43 0.37 0.43 0.42 0.38 0.44 0.48 0.66 0.99 1.15 0.58 0.35 0.36 0.71 0.60 0.33 0.27 0.32 0.46 0.51 0.31
0.19 0.12 0.08 0.08 0.15 0.20 0.21 0.26 0.28 0.29 0.34 0.35 0.42 0.46 0.56 0.67 0.58 0.43 0.39 0.45 0.47 0.43 0.44 0.46 0.55 0.74 1.27 0.84 0.76 0.40 0.38 0.74 0.85 0.59 0.36 0.33 0.49 0.44
0.08 0.14 0.10 0.11 0.17 0.24 0.29 0.33 0.39 0.40 0.40 0.50 0.45 0.44 0.45 0.68 0.58 0.40 0.46 0.41 0.48 0.56 0.48 0.27 0.23 0.46 0.82 1.12 1.15 0.58 0.50 0.52 0.75 1.10 0.85 0.72 0.39 0.34
0.09 0.18 0.19 0.19 0.25 0.30 0.35 0.38 0.44 0.40 0.36 0.35 0.32 0.35 0.41 0.57 0.68 0.57 0.50 0.62 0.41 0.30 0.32 0.31 0.47 0.58 0.79 1.08 0.69 0.35 0.37 0.42 0.48 0.50 0.67 1.24 1.35 1.06
0.23 0.28 0.28 0.30 0.33 0.38 0.45 0.46 0.38 0.29 0.26 0.31 0.35 0.35 0.44 0.61 0.45 0.48 0.51 0.52 0.47 0.55 0.45 0.47 0.49 0.55 0.64 0.63 0.68 0.59 0.44 0.40 0.34 0.37 0.41 0.41 0.42 0.44

GFSNE_prec_precacc_138.txt.gz
Total_Precipitation_Accumulation
1.42 1.35 1.29 1.17 1.28 1.40 1.57 1.88 2.40 2.23 1.42 0.92 0.89 0.88 0.88 0.90 1.06 0.95 0.78 0.99 1.05 1.03 1.04 1.10 0.99 1.03 1.00 1.06 1.19 1.13 1.37 1.67 1.64 1.61 1.69 1.80 1.65 1.62
1.42 1.46 1.47 1.41 1.38 1.31 1.28 1.40 1.59 1.96 1.82 1.04 0.94 0.99 1.15 1.34 1.72 1.70 1.61 1.81 1.43 1.21 1.14 0.93 0.80 0.66 0.59 0.61 0.65 0.66 0.77 1.04 1.26 1.35 1.42 1.67 2.12 2.07
1.59 1.84 1.95 2.06 2.26 2.24 2.29 2.45 2.58 2.69 2.66 1.72 1.37 1.27 1.25 1.25 1.24 1.14 1.19 1.17 1.25 1.45 1.23 1.09 0.87 0.70 0.63 0.57 0.53 0.50 0.50 0.56 0.73 0.87 1.03 1.08 1.18 1.50
0.55 0.71 0.79 0.95 1.21 1.42 1.66 1.82 2.16 2.62 3.05 2.42 1.77 1.61 1.48 1.33 1.12 0.87 0.80 0.85 0.89 1.20 1.20 1.13 1.04 0.94 0.92 0.92 0.81 0.68 0.57 0.50 0.47 0.49 0.55 0.68 0.75 0.80
0.36 0.41 0.44 0.47 0.54 0.58 0.69 0.87 1.03 1.18 1.42 1.39 1.09 1.00 1.02 1.15 1.25 1.17 1.04 0.95 0.88 1.15 1.06 1.04 1.08 1.05 0.96 0.90 0.92 0.98 0.96 0.76 0.54 0.45 0.45 0.46 0.63 0.79
0.13 0.15 0.22 0.31 0.43 0.62 0.86 0.96 0.92 0.80 0.72 0.65 0.60 0.53 0.50 0.54 0.64 0.68 0.65 0.57 0.49 0.50 0.57 0.57 0.65 0.69 0.78 0.81 0.73 0.70 0.78 0.94 1.05 0.95 0.74 0.65 0.60 0.66
0.26 0.31 0.37 0.49 0.57 0.53 0.45 0.36 0.37 0.41 0.43 0.47 0.43 0.33 0.28 0.25 0.26 0.29 0.33 0.39 0.44 0.49 0.41 0.33 0.27 0.23 0.28 0.43 0.59 0.72 0.73 0.77 0.85 0.96 1.00 0.93 0.90 0.94
0.34 0.37 0.41 0.50 0.40 0.39 0.30 0.26 0.22 0.26 0.25 0.21 0.17 0.12 0.09 0.11 0.15 0.23 0.32 0.44 0.44 0.32 0.32 0.30 0.26 0.21 0.16 0.16 0.28 0.41 0.54 0.62 0.66 0.68 0.81 0.99 0.98 0.92
0.25 0.23 0.20 0.19 0.17 0.13 0.19 0.21 0.25 0.23 0.18 0.12 0.09 0.06 0.07 0.07 0.16 0.20 0.19 0.21 0.15 0.10 0.22 0.30 0.29 0.30 0.22 0.24 0.25 0.23 0.33 0.41 0.47 0.55 0.64 0.70 0.84 1.04
0.15 0.13 0.09 0.04 0.03 0.03 0.05 0.11 0.08 0.11 0.16 0.18 0.16 0.16 0.20 0.22 0.27 0.31 0.18 0.14 0.10 0.08 0.14 0.22 0.16 0.22 0.20 0.22 0.32 0.30 0.33 0.34 0.36 0.40 0.47 0.58 0.66 0.73
0.07 0.02 0.02 0.01 0.03 0.03 0.05 0.02 0.00 0.01 0.09 0.17 0.26 0.37 0.44 0.45 0.35 0.31 0.36 0.36 0.27 0.13 0.09 0.10 0.09 0.14 0.16 0.17 0.20 0.29 0.32 0.37 0.43 0.50 0.44 0.44 0.54 0.63
0.02 0.02 0.03 0.02 0.03 0.06 0.05 0.03 0.04 0.01 0.05 0.06 0.08 0.16 0.26 0.32 0.36 0.23 0.17 0.32 0.35 0.42 0.27 0.34 0.18 0.15 0.31 0.13 0.15 0.22 0.24 0.28 0.30 0.36 0.59 0.66 0.56 0.56
0.02 0.01 0.01 0.03 0.06 0.07 0.08 0.04 0.06 0.07 0.06 0.04 0.04 0.10 0.17 0.27 0.31 0.31 0.30 0.39 0.48 0.35 0.14 0.54 0.62 0.32 0.52 0.20 0.06 0.11 0.12 0.16 0.20 0.24 0.32 0.46 0.66 0.64
0.03 0.02 0.02 0.05 0.07 0.07 0.08 0.06 0.09 0.10 0.05 0.03 0.04 0.06 0.13 0.19 0.25 0.30 0.39 0.47 0.49 0.52 0.28 0.37 0.80 0.35 0.62 0.45 0.18 0.11 0.12 0.11 0.14 0.16 0.21 0.40 0.54 0.61
0.04 0.06 0.07 0.07 0.08 0.06 0.06 0.08 0.08 0.06 0.03 0.04 0.04 0.06 0.07 0.12 0.21 0.36 0.47 0.50 0.57 0.60 0.54 0.53 0.62 0.51 0.71 0.68 0.36 0.15 0.22 0.20 0.14 0.14 0.21 0.35 0.48 0.58
0.07 0.09 0.12 0.12 0.11 0.09 0.10 0.10 0.08 0.08 0.09 0.11 0.09 0.08 0.11 0.16 0.23 0.30 0.40 0.41 0.50 0.46 0.51 0.54 0.52 0.67 0.85 0.59 0.59 0.40 0.20 0.31 0.30 0.27 0.31 0.32 0.40 0.52
0.33 0.22 0.17 0.11 0.10 0.11 0.10 0.11 0.16 0.16 0.17 0.15 0.19 0.21 0.19 0.19 0.20 0.18 0.30 0.41 0.56 0.45 0.38 0.39 0.48 0.52 0.55 0.54 0.72 0.43 0.28 0.21 0.22 0.36 0.45 0.45 0.36 0.55
0.40 0.26 0.15 0.12 0.12 0.12 0.15 0.18 0.22 0.25 0.24 0.27 0.29 0.30 0.34 0.32 0.31 0.31 0.33 0.40 0.47 0.37 0.42 0.44 0.45 0.63 0.64 0.55 0.52 0.53 0.49 0.28 0.19 0.20 0.34 0.74 0.41 0.27
0.38 0.14 0.10 0.12 0.13 0.15 0.18 0.20 0.20 0.17 0.26 0.37 0.46 0.46 0.50 0.51 0.52 0.44 0.37 0.43 0.42 0.38 0.44 0.48 0.66 1.00 1.17 0.60 0.35 0.36 0.71 0.60 0.33 0.27 0.32 0.46 0.51 0.31
0.19 0.12 0.08 0.09 0.16 0.21 0.22 0.27 0.28 0.29 0.34 0.35 0.42 0.46 0.56 0.67 0.58 0.44 0.39 0.46 0.47 0.43 0.44 0.46 0.55 0.74 1.29 0.85 0.77 0.41 0.38 0.74 0.85 0.61 0.37 0.33 0.49 0.44
0.08 0.15 0.11 0.12 0.19 0.25 0.29 0.33 0.39 0.40 0.40 0.50 0.45 0.45 0.45 0.69 0.59 0.41 0.47 0.41 0.49 0.58 0.49 0.27 0.23 0.46 0.83 1.16 1.21 0.58 0.50 0.52 0.76 1.14 0.88 0.75 0.40 0.35
0.10 0.18 0.20 0.21 0.28 0.32 0.35 0.38 0.44 0.40 0.36 0.35 0.33 0.35 0.41 0.57 0.69 0.57 0.51 0.62 0.41 0.30 0.33 0.31 0.47 0.58 0.79 1.10 0.71 0.35 0.37 0.42 0.48 0.50 0.68 1.28 1.41 1.10
0.24 0.30 0.29 0.32 0.35 0.40 0.46 0.46 0.38 0.29 0.26 0.31 0.35 0.35 0.44 0.62 0.46 0.49 0.52 0.52 0.48 0.56 0.46 0.48 0.49 0.55 0.64 0.64 0.69 0.60 0.45 0.40 0.34 0.37 0.41 0.41 0.42 0.45

GFSNE_prec_precacc_141.txt.gz
Total_Precipitation_Accumulation
1.42 1.35 1.29 1.17 1.28 1.40 1.57 1.88 2.40 2.23 1.42 0.92 0.89 0.88 0.88 0.90 1.06 0.95 0.78 0.99 1.05 1.03 1.04 1.10 0.99 1.03 1.00 1.06 1.19 1.13 1.37 1.67 1.64 1.61 1.69 1.80 1.65 1.62
1.42 1.46 1.47 1.41 1.38 1.31 1.28 1.40 1.59 1.96 1.82 1.04 0.94 0.99 1.15 1.34 1.72 1.70 1.61 1.81 1.43 1.21 1.14 0.93 0.80 0.66 0.59 0.61 0.65 0.66 0.77 1.04 1.26 1.35 1.42 1.67 2.12 2.07
1.59 1.84 1.95 2.06 2.26 2.24 2.29 2.45 2.58 2.69 2.66 1.72 1.37 1.27 1.25 1.25 1.24 1.14 1.19 1.17 1.25 1.45 1.23 1.09 0.87 0.70 0.63 0.57 0.53 0.50 0.50 0.56 0.73 0.87 1.03 1.08 1.18 1.50
0.55 0.71 0.79 0.95 1.21 1.42 1.66 1.82 2.16 2.62 3.05 2.42 1.77 1.61 1.48 1.33 1.12 0.87 0.80 0.85 0.89 1.20 1.20 1.13 1.04 0.94 0.92 0.92 0.81 0.68 0.57 0.50 0.47 0.49 0.55 0.68 0.75 0.80
0.36 0.41 0.44 0.47 0.54 0.58 0.69 0.87 1.03 1.18 1.42 1.39 1.09 1.00 1.02 1.15 1.25 1.17 1.04 0.95 0.88 1.15 1.06 1.04 1.08 1.05 0.96 0.90 0.92 0.98 0.96 0.76 0.54 0.45 0.45 0.46 0.63 0.79
0.13 0.15 0.22 0.31 0.43 0.62 0.86 0.96 0.92 0.80 0.72 0.65 0.60 0.53 0.50 0.54 0.64 0.68 0.65 0.57 0.49 0.50 0.57 0.57 0.65 0.69 0.78 0.81 0.73 0.70 0.78 0.94 1.05 0.95 0.74 0.65 0.60 0.66
0.26 0.31 0.37 0.49 0.57 0.53 0.45 0.36 0.37 0.41 0.43 0.47 0.43 0.33 0.28 0.25 0.26 0.29 0.33 0.39 0.44 0.49 0.41 0.33 0.27 0.23 0.28 0.43 0.59 0.72 0.73 0.77 0.85 0.96 1.00 0.93 0.90 0.94
0.34 0.37 0.41 0.50 0.40 0.39 0.30 0.26 0.22 0.26 0.25 0.21 0.17 0.12 0.09 0.11 0.15 0.23 0.32 0.44 0.44 0.32 0.32 0.30 0.26 0.21 0.16 0.16 0.28 0.41 0.54 0.62 0.66 0.68 0.81 0.99 0.98 0.92
0.25 0.23 0.20 0.19 0.17 0.13 0.19 0.21 0.25 0.23 0.18 0.12 0.09 0.06 0.07 0.07 0.16 0.20 0.19 0.21 0.15 0.10 0.22 0.30 0.29 0.30 0.22 0.24 0.25 0.23 0.33 0.41 0.47 0.55 0.64 0.70 0.84 1.04
0.15 0.13 0.09 0.04 0.03 0.03 0.05 0.11 0.08 0.11 0.16 0.18 0.16 0.16 0.20 0.22 0.27 0.31 0.18 0.14 0.10 0.08 0.14 0.22 0.16 0.22 0.20 0.22 0.32 0.30 0.33 0.34 0.36 0.40 0.47 0.58 0.66 0.73
0.07 0.02 0.02 0.01 0.03 0.04 0.05 0.02 0.00 0.01 0.09 0.17 0.26 0.37 0.44 0.45 0.35 0.33 0.38 0.37 0.28 0.13 0.09 0.10 0.09 0.14 0.16 0.17 0.20 0.29 0.32 0.37 0.43 0.50 0.44 0.44 0.54 0.63
0.02 0.02 0.03 0.02 0.03 0.07 0.06 0.03 0.04 0.01 0.05 0.06 0.08 0.16 0.26 0.32 0.36 0.23 0.17 0.34 0.35 0.42 0.27 0.34 0.18 0.15 0.31 0.13 0.15 0.22 0.24 0.28 0.30 0.36 0.59 0.66 0.56 0.56
0.02 0.01 0.01 0.03 0.07 0.08 0.09 0.04 0.06 0.07 0.06 0.04 0.04 0.10 0.17 0.27 0.31 0.31 0.30 0.39 0.49 0.35 0.14 0.54 0.62 0.32 0.52 0.20 0.06 0.11 0.12 0.16 0.20 0.24 0.32 0.46 0.66 0.64
0.03 0.02 0.02 0.06 0.08 0.07 0.08 0.06 0.09 0.10 0.05 0.03 0.04 0.07 0.13 0.20 0.25 0.30 0.39 0.47 0.49 0.52 0.28 0.37 0.80 0.35 0.62 0.45 0.18 0.11 0.12 0.11 0.14 0.16 0.21 0.40 0.54 0.61
0.04 0.06 0.07 0.07 0.08 0.06 0.06 0.08 0.08 0.06 0.03 0.05 0.04 0.06 0.07 0.12 0.21 0.36 0.47 0.50 0.57 0.60 0.54 0.53 0.62 0.51 0.71 0.68 0.36 0.15 0.22 0.20 0.14 0.14 0.21 0.35 0.48 0.58
0.07 0.09 0.12 0.12 0.11 0.09 0.10 0.10 0.08 0.08 0.09 0.12 0.09 0.08 0.11 0.16 0.23 0.30 0.40 0.41 0.50 0.46 0.51 0.54 0.52 0.67 0.85 0.60 0.60 0.41 0.20 0.31 0.30 0.27 0.31 0.32 0.40 0.52
0.33 0.22 0.17 0.11 0.10 0.11 0.10 0.11 0.16 0.17 0.18 0.16 0.20 0.21 0.19 0.19 0.20 0.18 0.30 0.41 0.57 0.45 0.38 0.39 0.48 0.52 0.55 0.54 0.72 0.43 0.28 0.21 0.22 0.36 0.45 0.45 0.36 0.55
0.40 0.26 0.15 0.12 0.12 0.12 0.15 0.18 0.22 0.26 0.25 0.27 0.29 0.30 0.34 0.32 0.31 0.31 0.33 0.40 0.47 0.37 0.42 0.44 0.45 0.63 0.64 0.56 0.53 0.53 0.49 0.28 0.19 0.20 0.34 0.74 0.41 0.27
0.38 0.14 0.10 0.12 0.13 0.15 0.18 0.20 0.20 0.18 0.26 0.39 0.46 0.46 0.50 0.51 0.52 0.44 0.37 0.43 0.43 0.38 0.44 0.48 0.66 1.00 1.18 0.60 0.35 0.36 0.71 0.60 0.33 0.27 0.32 0.46 0.51 0.31
0.19 0.12 0.08 0.09 0.16 0.21 0.22 0.27 0.29 0.30 0.35 0.36 0.42 0.46 0.56 0.67 0.58 0.44 0.39 0.46 0.48 0.43 0.44 0.46 0.55 0.74 1.29 0.86 0.78 0.41 0.38 0.74 0.85 0.61 0.37 0.33 0.49 0.44
0.08 0.15 0.11 0.12 0.20 0.26 0.30 0.34 0.40 0.41 0.40 0.51 0.45 0.45 0.45 0.69 0.59 0.41 0.47 0.41 0.50 0.59 0.51 0.27 0.23 0.46 0.83 1.20 1.25 0.59 0.50 0.52 0.76 1.14 0.89 0.77 0.41 0.35
0.10 0.18 0.20 0.22 0.29 0.33 0.36 0.39 0.45 0.40 0.36 0.35 0.33 0.35 0.41 0.58 0.69 0.57 0.51 0.63 0.42 0.30 0.33 0.31 0.47 0.58 0.80 1.11 0.72 0.35 0.37 0.42 0.48 0.50 0.68 1.30 1.46 1.17
0.25 0.31 0.31 0.34 0.36 0.42 0.47 0.47 0.38 0.29 0.26 0.31 0.35 0.35 0.44 0.62 0.46 0.49 0.53 0.53 0.48 0.57 0.46 0.48 0.49 0.55 0.65 0.64 0.70 0.61 0.45 0.40 0.34 0.37 0.41 0.41 0.43 0.46

GFSNE_prec_precacc_144.txt.gz
Total_Precipitation_Accumulation
1.42 1.35 1.29 1.17 1.28 1.40 1.57 1.88 2.40 2.23 1.42 0.92 0.89 0.88 0.88 0.90 1.06 0.95 0.78 0.99 1.05 1.03 1.04 1.10 0.99 1.03 1.00 1.06 1.19 1.13 1.37 1.67 1.64 1.61 1.69 1.80 1.65 1.62
1.42 1.46 1.47 1.41 1.38 1.31 1.28 1.40 1.59 1.96 1.82 1.04 0.94 0.99 1.15 1.34 1.72 1.70 1.61 1.81 1.43 1.21 1.14 0.93 0.80 0.66 0.59 0.61 0.65 0.66 0.77 1.04 1.26 1.35 1.42 1.67 2.12 2.07
1.59 1.84 1.95 2.06 2.26 2.24 2.29 2.45 2.58 2.69 2.66 1.72 1.37 1.27 1.25 1.25 1.24 1.14 1.19 1.17 1.25 1.45 1.23 1.09 0.87 0.70 0.63 0.57 0.53 0.50 0.50 0.56 0.73 0.87 1.03 1.08 1.18 1.50
0.55 0.71 0.79 0.95 1.21 1.42 1.66 1.82 2.16 2.62 3.05 2.42 1.77 1.61 1.48 1.33 1.12 0.87 0.80 0.85 0.89 1.20 1.20 1.13 1.04 0.94 0.92 0.92 0.81 0.68 0.57 0.50 0.47 0.49 0.55 0.68 0.75 0.80
0.36 0.41 0.44 0.47 0.54 0.58 0.69 0.87 1.03 1.18 1.42 1.39 1.09 1.00 1.02 1.15 1.25 1.17 1.04 0.95 0.88 1.15 1.06 1.04 1.08 1.05 0.96 0.90 0.92 0.98 0.96 0.76 0.54 0.45 0.45 0.46 0.63 0.79
0.13 0.15 0.22 0.31 0.43 0.62 0.86 0.96 0.92 0.80 0.72 0.65 0.60 0.53 0.50 0.54 0.64 0.68 0.65 0.57 0.49 0.50 0.57 0.57 0.65 0.69 0.78 0.81 0.73 0.70 0.78 0.94 1.05 0.95 0.74 0.65 0.60 0.66
0.26 0.31 0.37 0.49 0.57 0.53 0.45 0.36 0.37 0.41 0.43 0.47 0.43 0.33 0.28 0.25 0.26 0.29 0.33 0.39 0.44 0.49 0.41 0.33 0.27 0.23 0.28 0.43 0.59 0.72 0.73 0.77 0.85 0.96 1.00 0.93 0.90 0.94
0.34 0.37 0.41 0.50 0.40 0.39 0.30 0.26 0.22 0.26 0.25 0.21 0.17 0.12 0.09 0.11 0.15 0.23 0.32 0.44 0.44 0.32 0.32 0.30 0.26 0.21 0.16 0.16 0.28 0.41 0.54 0.62 0.66 0.68 0.81 0.99 0.98 0.92
0.25 0.23 0.20 0.19 0.17 0.13 0.19 0.21 0.25 0.23 0.19 0.12 0.09 0.06 0.07 0.07 0.16 0.20 0.19 0.21 0.15 0.10 0.22 0.31 0.29 0.30 0.22 0.24 0.25 0.23 0.33 0.41 0.47 0.55 0.64 0.70 0.84 1.04
0.15 0.13 0.09 0.04 0.03 0.03 0.05 0.11 0.08 0.11 0.16 0.19 0.16 0.16 0.20 0.22 0.27 0.31 0.18 0.14 0.10 0.08 0.14 0.23 0.16 0.22 0.20 0.22 0.32 0.30 0.33 0.34 0.36 0.40 0.47 0.58 0.66 0.73
0.07 0.02 0.02 0.01 0.03 0.04 0.05 0.02 0.00 0.01 0.09 0.18 0.27 0.37 0.44 0.45 0.35 0.33 0.39 0.38 0.28 0.13 0.09 0.10 0.09 0.14 0.16 0.17 0.20 0.29 0.32 0.37 0.43 0.50 0.44 0.44 0.54 0.63
0.02 0.02 0.03 0.02 0.03 0.07 0.06 0.03 0.04 0.01 0.05 0.07 0.08 0.16 0.26 0.32 0.36 0.24 0.18 0.34 0.35 0.43 0.27 0.34 0.18 0.15 0.31 0.13 0.15 0.22 0.24 0.28 0.30 0.36 0.59 0.66 0.56 0.56
0.02 0.01 0.01 0.03 0.07 0.08 0.09 0.05 0.07 0.07 0.06 0.04 0.04 0.10 0.17 0.27 0.31 0.32 0.30 0.40 0.50 0.36 0.14 0.54 0.62 0.32 0.52 0.20 0.06 0.11 0.12 0.16 0.20 0.24 0.32 0.46 0.66 0.64
0.03 0.02 0.02 0.06 0.08 0.07 0.08 0.07 0.09 0.11 0.05 0.03 0.04 0.07 0.13 0.20 0.25 0.31 0.40 0.48 0.49 0.52 0.28 0.37 0.80 0.35 0.62 0.46 0.18 0.11 0.12 0.11 0.14 0.16 0.21 0.40 0.54 0.61
0.04 0.06 0.07 0.07 0.08 0.06 0.06 0.08 0.08 0.06 0.03 0.06 0.04 0.06 0.07 0.12 0.22 0.38 0.48 0.50 0.57 0.60 0.54 0.53 0.62 0.51 0.71 0.69 0.36 0.15 0.22 0.20 0.14 0.14 0.21 0.35 0.48 0.58
0.07 0.09 0.12 0.12 0.11 0.09 0.10 0.10 0.08 0.08 0.09 0.12 0.09 0.08 0.11 0.16 0.24 0.31 0.40 0.41 0.50 0.46 0.51 0.54 0.52 0.67 0.85 0.60 0.60 0.41 0.21 0.31 0.30 0.27 0.31 0.32 0.40 0.52
0.33 0.22 0.17 0.11 0.10 0.11 0.10 0.11 0.16 0.17 0.19 0.16 0.20 0.21 0.19 0.20 0.21 0.19 0.30 0.42 0.57 0.45 0.38 0.39 0.48 0.52 0.55 0.55 0.74 0.43 0.28 0.21 0.22 0.36 0.45 0.45 0.36 0.55
0.40 0.26 0.15 0.12 0.12 0.12 0.15 0.18 0.22 0.26 0.25 0.28 0.30 0.31 0.34 0.33 0.31 0.31 0.33 0.40 0.47 0.37 0.42 0.44 0.45 0.64 0.65 0.56 0.53 0.53 0.49 0.28 0.19 0.20 0.34 0.74 0.41 0.27
0.39 0.14 0.10 0.12 0.13 0.15 0.18 0.21 0.20 0.18 0.27 0.40 0.47 0.46 0.51 0.52 0.53 0.45 0.38 0.44 0.43 0.39 0.44 0.48 0.66 1.00 1.19 0.61 0.35 0.36 0.71 0.60 0.33 0.27 0.32 0.46 0.52 0.31
0.19 0.12 0.08 0.09 0.16 0.21 0.22 0.27 0.29 0.31 0.35 0.37 0.44 0.47 0.58 0.69 0.59 0.45 0.39 0.46 0.48 0.43 0.44 0.46 0.55 0.74 1.30 0.86 0.78 0.41 0.38 0.74 0.85 0.61 0.37 0.33 0.49 0.44
0.08 0.16 0.12 0.14 0.21 0.27 0.31 0.36 0.41 0.42 0.41 0.52 0.47 0.46 0.47 0.71 0.60 0.41 0.47 0.41 0.51 0.60 0.51 0.27 0.23 0.46 0.84 1.23 1.28 0.59 0.50 0.52 0.76 1.14 0.89 0.78 0.42 0.36
0.10 0.19 0.21 0.24 0.32 0.37 0.40 0.42 0.47 0.42 0.39 0.37 0.34 0.37 0.42 0.59 0.69 0.58 0.51 0.63 0.42 0.30 0.33 0.31 0.47 0.58 0.80 1.13 0.73 0.35 0.37 0.42 0.48 0.50 0.68 1.31 1.47 1.19
0.25 0.32 0.31 0.35 0.38 0.45 0.51 0.50 0.41 0.31 0.28 0.33 0.36 0.36 0.45 0.62 0.46 0.49 0.53 0.53 0.49 0.57 0.46 0.49 0.49 0.55 0.65 0.64 0.70 0.61 0.45 0.40 0.34 0.37 0.41 0.41 0.43 0.46

GFSNE_prec_precacc_147.txt.gz
Total_Precipitation_Accumulation
1.42 1.35 1.29 1.17 1.28 1.40 1.57 1.88 2.40 2.23 1.42 0.92 0.89 0.88 0.88 0.90 1.06 0.95 0.78 0.99 1.05 1.03 1.04 1.10 0.99 1.03 1.00 1.06 1.19 1.13 1.37 1.67 1.64 1.61 1.69 1.80 1.65 1.62
1.42 1.46 1.47 1.41 1.38 1.31 1.28 1.40 1.59 1.96 1.82 1.04 0.94 0.99 1.15 1.34 1.72 1.70 1.61 1.81 1.43 1.21 1.14 0.93 0.80 0.66 0.59 0.61 0.65 0.66 0.77 1.04 1.26 1.35 1.42 1.67 2.12 2.07
1.59 1.84 1.95 2.06 2.26 2.24 2.29 2.45 2.58 2.69 2.66 1.72 1.37 1.27 1.25 1.25 1.24 1.14 1.19 1.17 1.25 1.45 1.23 1.09 0.87 0.70 0.63 0.57 0.53 0.50 0.50 0.56 0.73 0.87 1.03 1.08 1.18 1.50
0.55 0.71 0.79 0.95 1.21 1.42 1.66 1.82 2.16 2.62 3.05 2.42 1.77 1.61 1.48 1.33 1.12 0.87 0.80 0.85 0.89 1.20 1.20 1.13 1.04 0.94 0.92 0.92 0.81 0.68 0.57 0.50 0.47 0.49 0.55 0.68 0.75 0.80
0.36 0.41 0.44 0.47 0.54 0.58 0.69 0.87 1.03 1.18 1.42 1.39 1.09 1.00 1.02 1.15 1.25 1.17 1.04 0.95 0.88 1.15 1.06 1.04 1.08 1.05 0.96 0.90 0.92 0.98 0.96 0.76 0.54 0.45 0.45 0.46 0.63 0.79
0.13 0.15 0.22 0.31 0.43 0.62 0.86 0.96 0.92 0.80 0.72 0.65 0.60 0.53 0.50 0.54 0.64 0.68 0.65 0.57 0.49 0.50 0.57 0.57 0.65 0.69 0.78 0.81 0.73 0.70 0.78 0.94 1.05 0.95 0.74 0.65 0.60 0.66
0.26 0.31 0.37 0.49 0.57 0.53 0.45 0.36 0.37 0.41 0.43 0.47 0.43 0.33 0.28 0.25 0.26 0.29 0.33 0.39 0.44 0.49 0.41 0.33 0.27 0.23 0.28 0.43 0.59 0.72 0.73 0.77 0.85 0.96 1.00 0.93 0.90 0.94
0.34 0.37 0.41 0.50 0.40 0.39 0.30 0.26 0.22 0.26 0.25 0.21 0.17 0.12 0.09 0.11 0.15 0.23 0.32 0.44 0.44 0.32 0.32 0.30 0.26 0.21 0.16 0.16 0.28 0.41 0.54 0.62 0.66 0.68 0.81 0.99 0.98 0.92
0.25 0.23 0.20 0.19 0.17 0.13 0.19 0.21 0.25 0.23 0.19 0.12 0.09 0.06 0.07 0.07 0.16 0.20 0.19 0.21 0.15 0.10 0.22 0.31 0.29 0.30 0.22 0.24 0.25 0.23 0.33 0.41 0.47 0.55 0.64 0.70 0.84 1.04
0.15 0.13 0.09 0.04 0.03 0.03 0.05 0.11 0.08 0.11 0.16 0.19 0.17 0.17 0.20 0.22 0.27 0.31 0.18 0.14 0.10 0.08 0.14 0.23 0.16 0.22 0.20 0.22 0.32 0.30 0.33 0.34 0.36 0.40 0.47 0.58 0.66 0.73
0.07 0.02 0.02 0.01 0.03 0.04 0.05 0.02 0.00 0.01 0.09 0.18 0.27 0.37 0.44 0.45 0.35 0.33 0.39 0.38 0.28 0.13 0.09 0.10 0.09 0.14 0.16 0.17 0.20 0.29 0.32 0.37 0.43 0.50 0.44 0.44 0.54 0.63
0.02 0.02 0.03 0.02 0.03 0.07 0.06 0.03 0.04 0.01 0.05 0.07 0.09 0.16 0.26 0.32 0.36 0.24 0.18 0.35 0.36 0.43 0.27 0.34 0.18 0.15 0.31 0.13 0.15 0.22 0.24 0.28 0.30 0.36 0.59 0.66 0.56 0.56
0.02 0.01 0.01 0.03 0.07 0.08 0.09 0.05 0.07 0.07 0.06 0.04 0.04 0.10 0.17 0.27 0.31 0.32 0.30 0.41 0.50 0.36 0.14 0.54 0.62 0.32 0.52 0.20 0.06 0.11 0.12 0.16 0.20 0.24 0.32 0.46 0.66 0.64
0.03 0.02 0.02 0.06 0.08 0.07 0.08 0.07 0.09 0.11 0.06 0.03 0.04 0.07 0.13 0.20 0.25 0.31 0.41 0.49 0.50 0.52 0.28 0.38 0.81 0.35 0.62 0.46 0.18 0.11 0.12 0.11 0.14 0.16 0.21 0.40 0.54 0.61
0.04 0.06 0.07 0.07 0.08 0.06 0.06 0.08 0.08 0.06 0.04 0.06 0.05 0.06 0.07 0.12 0.22 0.38 0.48 0.52 0.59 0.60 0.54 0.54 0.63 0.51 0.71 0.69 0.36 0.15 0.22 0.20 0.14 0.14 0.21 0.35 0.48 0.58
0.07 0.09 0.12 0.12 0.11 0.09 0.10 0.10 0.08 0.08 0.09 0.12 0.09 0.08 0.11 0.16 0.24 0.31 0.42 0.43 0.53 0.46 0.51 0.54 0.52 0.67 0.85 0.60 0.60 0.41 0.21 0.31 0.30 0.27 0.31 0.32 0.40 0.52
0.34 0.22 0.17 0.11 0.10 0.11 0.10 0.11 0.18 0.23 0.24 0.17 0.21 0.21 0.19 0.20 0.22 0.20 0.33 0.44 0.59 0.45 0.38 0.39 0.48 0.52 0.55 0.55 0.75 0.43 0.28 0.21 0.22 0.36 0.45 0.45 0.36 0.55
0.41 0.26 0.16 0.12 0.12 0.13 0.16 0.21 0.25 0.32 0.33 0.31 0.32 0.31 0.35 0.34 0.32 0.33 0.35 0.43 0.48 0.37 0.43 0.44 0.45 0.64 0.65 0.56 0.53 0.53 0.49 0.28 0.19 0.20 0.34 0.75 0.41 0.27
0.39 0.15 0.11 0.12 0.13 0.16 0.22 0.27 0.25 0.20 0.31 0.46 0.49 0.47 0.52 0.54 0.55 0.47 0.39 0.46 0.44 0.39 0.44 0.48 0.66 1.01 1.20 0.61 0.35 0.36 0.71 0.60 0.33 0.27 0.32 0.46 0.52 0.31
0.19 0.13 0.09 0.10 0.17 0.25 0.28 0.35 0.36 0.36 0.40 0.40 0.45 0.48 0.59 0.71 0.61 0.47 0.41 0.47 0.49 0.44 0.44 0.46 0.55 0.74 1.31 0.86 0.78 0.41 0.38 0.74 0.85 0.61 0.37 0.33 0.49 0.44
0.08 0.16 0.13 0.15 0.24 0.31 0.37 0.44 0.50 0.48 0.45 0.55 0.49 0.48 0.48 0.73 0.62 0.42 0.49 0.43 0.51 0.61 0.51 0.27 0.23 0.46 0.85 1.25 1.30 0.59 0.50 0.52 0.76 1.14 0.90 0.79 0.42 0.36
0.10 0.20 0.21 0.25 0.34 0.40 0.45 0.48 0.54 0.47 0.44 0.40 0.36 0.39 0.45 0.61 0.71 0.59 0.53 0.64 0.42 0.31 0.33 0.31 0.47 0.58 0.81 1.15 0.74 0.35 0.37 0.42 0.48 0.50 0.68 1.31 1.48 1.20
0.28 0.34 0.33 0.36 0.39 0.47 0.57 0.56 0.46 0.35 0.31 0.38 0.39 0.39 0.48 0.65 0.47 0.50 0.54 0.53 0.49 0.57 0.46 0.49 0.49 0.56 0.66 0.65 0.71 0.61 0.45 0.40 0.34 0.37 0.41 0.41 0.43 0.46

GFSNE_prec_precacc_150.txt.gz
Total_Precipitation_Accumulation
1.42 1.35 1.29 1.17 1.28 1.40 1.57 1.88 2.40 2.23 1.42 0.92 0.89 0.88 0.88 0.90 1.06 0.95 0.78 0.99 1.05 1.03 1.04 1.10 0.99 1.03 1.00 1.06 1.19 1.13 1.37 1.67 1.64 1.61 1.69 1.80 1.65 1.63
1.42 1.46 1.47 1.41 1.38 1.31 1.28 1.40 1.59 1.96 1.82 1.04 0.94 0.99 1.15 1.34 1.72 1.70 1.61 1.81 1.43 1.21 1.14 0.93 0.80 0.66 0.59 0.61 0.65 0.66 0.77 1.04 1.26 1.35 1.43 1.68 2.12 2.07
1.59 1.84 1.95 2.06 2.26 2.24 2.29 2.45 2.58 2.69 2.66 1.72 1.37 1.27 1.25 1.25 1.24 1.14 1.19 1.17 1.25 1.45 1.23 1.09 0.87 0.70 0.63 0.57 0.53 0.50 0.50 0.56 0.73 0.87 1.03 1.09 1.18 1.50
0.55 0.71 0.79 0.95 1.21 1.42 1.66 1.82 2.16 2.62 3.05 2.42 1.77 1.61 1.48 1.33 1.12 0.87 0.80 0.85 0.89 1.20 1.20 1.13 1.04 0.94 0.92 0.92 0.81 0.68 0.57 0.50 0.47 0.49 0.55 0.68 0.75 0.80
0.36 0.41 0.44 0.47 0.54 0.58 0.69 0.87 1.03 1.18 1.42 1.39 1.09 1.00 1.02 1.15 1.25 1.17 1.04 0.95 0.88 1.15 1.06 1.04 1.08 1.05 0.96 0.90 0.92 0.98 0.96 0.76 0.54 0.45 0.45 0.46 0.63 0.79
0.13 0.15 0.22 0.31 0.43 0.62 0.86 0.96 0.92 0.80 0.72 0.65 0.60 0.53 0.50 0.54 0.64 0.68 0.65 0.57 0.49 0.50 0.57 0.57 0.65 0.69 0.78 0.81 0.73 0.70 0.78 0.94 1.05 0.95 0.74 0.65 0.60 0.66
0.26 0.31 0.37 0.49 0.57 0.53 0.45 0.36 0.37 0.41 0.43 0.47 0.43 0.33 0.28 0.25 0.26 0.29 0.33 0.39 0.44 0.49 0.41 0.33 0.27 0.23 0.28 0.43 0.59 0.72 0.73 0.77 0.85 0.96 1.00 0.93 0.90 0.94
0.34 0.37 0.41 0.50 0.40 0.39 0.30 0.26 0.22 0.26 0.25 0.21 0.17 0.12 0.09 0.11 0.15 0.23 0.32 0.44 0.44 0.32 0.32 0.30 0.26 0.21 0.16 0.16 0.28 0.41 0.54 0.62 0.66 0.68 0.81 0.99 0.98 0.92
0.25 0.23 0.20 0.19 0.17 0.13 0.19 0.21 0.25 0.23 0.19 0.12 0.09 0.06 0.07 0.07 0.16 0.20 0.19 0.21 0.15 0.10 0.22 0.31 0.29 0.30 0.22 0.24 0.25 0.23 0.33 0.41 0.47 0.55 0.64 0.70 0.84 1.04
0.15 0.13 0.09 0.04 0.03 0.03 0.05 0.11 0.08 0.11 0.16 0.19 0.17 0.17 0.20 0.22 0.27 0.31 0.18 0.14 0.10 0.08 0.14 0.23 0.16 0.22 0.20 0.22 0.32 0.30 0.33 0.34 0.36 0.40 0.47 0.58 0.66 0.73
0.07 0.02 0.02 0.01 0.03 0.04 0.05 0.02 0.00 0.01 0.09 0.18 0.27 0.37 0.44 0.45 0.35 0.34 0.40 0.39 0.29 0.13 0.09 0.11 0.09 0.14 0.16 0.17 0.20 0.29 0.32 0.37 0.43 0.50 0.44 0.44 0.54 0.63
0.02 0.02 0.03 0.02 0.03 0.07 0.06 0.03 0.04 0.01 0.05 0.07 0.09 0.16 0.26 0.33 0.37 0.25 0.19 0.36 0.36 0.43 0.27 0.34 0.18 0.15 0.31 0.13 0.15 0.22 0.24 0.28 0.30 0.36 0.59 0.66 0.56 0.56
0.02 0.01 0.01 0.03 0.07 0.08 0.09 0.05 0.07 0.07 0.06 0.04 0.04 0.10 0.17 0.27 0.31 0.32 0.31 0.42 0.51 0.37 0.14 0.55 0.62 0.32 0.52 0.20 0.06 0.11 0.12 0.16 0.20 0.24 0.32 0.46 0.66 0.64
0.03 0.02 0.02 0.06 0.08 0.07 0.08 0.07 0.10 0.11 0.06 0.04 0.05 0.07 0.13 0.20 0.25 0.32 0.42 0.50 0.50 0.53 0.28 0.39 0.83 0.36 0.62 0.46 0.18 0.11 0.12 0.11 0.14 0.16 0.21 0.40 0.54 0.61
0.04 0.06 0.08 0.08 0.08 0.06 0.06 0.09 0.09 0.08 0.08 0.10 0.07 0.07 0.08 0.12 0.23 0.39 0.49 0.52 0.60 0.61 0.55 0.55 0.66 0.53 0.72 0.70 0.37 0.15 0.22 0.20 0.14 0.14 0.21 0.35 0.48 0.58
0.07 0.09 0.12 0.12 0.11 0.09 0.10 0.10 0.09 0.10 0.14 0.19 0.14 0.11 0.16 0.21 0.26 0.32 0.43 0.43 0.55 0.47 0.51 0.54 0.54 0.69 0.87 0.61 0.61 0.42 0.21 0.31 0.30 0.27 0.31 0.32 0.40 0.52
0.35 0.22 0.17 0.11 0.10 0.11 0.10 0.11 0.19 0.25 0.32 0.29 0.32 0.33 0.31 0.30 0.27 0.22 0.35 0.47 0.62 0.46 0.39 0.40 0.50 0.54 0.56 0.55 0.75 0.44 0.29 0.21 0.22 0.36 0.45 0.45 0.36 0.55
0.41 0.26 0.16 0.13 0.12 0.13 0.17 0.22 0.27 0.34 0.37 0.43 0.47 0.44 0.46 0.42 0.38 0.38 0.39 0.47 0.50 0.38 0.44 0.47 0.48 0.68 0.66 0.57 0.54 0.54 0.49 0.28 0.19 0.20 0.35 0.75 0.42 0.27
0.39 0.15 0.11 0.12 0.14 0.16 0.22 0.29 0.30 0.25 0.37 0.56 0.60 0.56 0.59 0.61 0.60 0.52 0.41 0.49 0.47 0.40 0.46 0.52 0.69 1.02 1.21 0.62 0.35 0.36 0.71 0.60 0.34 0.27 0.32 0.47 0.52 0.31
0.19 0.13 0.09 0.10 0.18 0.26 0.29 0.36 0.39 0.41 0.47 0.47 0.52 0.54 0.64 0.77 0.66 0.51 0.44 0.49 0.51 0.46 0.47 0.48 0.56 0.75 1.32 0.86 0.79 0.41 0.38 0.74 0.86 0.61 0.37 0.33 0.49 0.44
0.08 0.16 0.13 0.16 0.25 0.32 0.38 0.46 0.53 0.55 0.51 0.60 0.53 0.52 0.53 0.79 0.66 0.45 0.52 0.45 0.54 0.63 0.54 0.29 0.23 0.46 0.85 1.26 1.31 0.59 0.50 0.52 0.76 1.14 0.90 0.79 0.43 0.36
0.11 0.20 0.22 0.26 0.35 0.42 0.46 0.50 0.58 0.50 0.48 0.44 0.40 0.44 0.50 0.66 0.75 0.61 0.55 0.66 0.45 0.32 0.34 0.31 0.47 0.59 0.82 1.17 0.75 0.35 0.37 0.42 0.48 0.50 0.68 1.31 1.49 1.20
0.28 0.36 0.34 0.37 0.41 0.50 0.59 0.59 0.50 0.38 0.35 0.42 0.43 0.43 0.53 0.69 0.49 0.52 0.55 0.55 0.50 0.58 0.47 0.49 0.49 0.56 0.66 0.66 0.72 0.62 0.45 0.40 0.34 0.37 0.41 0.41 0.43 0.46

GFSNE_prec_precacc_153.txt.gz
Total_Precipitation_Accumulation
1.42 1.35 1.29 1.17 1.28 1.40 1.57 1.88 2.40 2.23 1.42 0.92 0.89 0.88 0.88 0.90 1.06 0.95 0.78 0.99 1.05 1.03 1.04 1.10 0.99 1.03 1.00 1.06 1.19 1.13 1.37 1.67 1.64 1.61 1.69 1.80 1.65 1.63
1.42 1.46 1.47 1.41 1.38 1.31 1.28 1.40 1.59 1.96 1.82 1.04 0.94 0.99 1.15 1.34 1.72 1.70 1.61 1.81 1.43 1.21 1.14 0.93 0.80 0.66 0.59 0.61 0.65 0.66 0.77 1.04 1.26 1.35 1.43 1.68 2.13 2.07
1.59 1.84 1.95 2.06 2.26 2.24 2.29 2.45 2.58 2.69 2.66 1.72 1.37 1.27 1.25 1.25 1.24 1.14 1.19 1.17 1.25 1.45 1.23 1.09 0.87 0.70 0.63 0.57 0.53 0.50 0.50 0.56 0.73 0.87 1.03 1.09 1.18 1.50
0.55 0.71 0.79 0.95 1.21 1.42 1.66 1.82 2.16 2.62 3.05 2.42 1.77 1.61 1.48 1.33 1.12 0.87 0.80 0.85 0.89 1.20 1.20 1.13 1.04 0.94 0.92 0.92 0.81 0.68 0.57 0.50 0.47 0.49 0.55 0.68 0.75 0.80
0.36 0.41 0.44 0.47 0.54 0.58 0.69 0.87 1.03 1.18 1.42 1.39 1.09 1.00 1.02 1.15 1.25 1.17 1.04 0.95 0.88 1.15 1.06 1.04 1.08 1.05 0.96 0.90 0.92 0.98 0.96 0.76 0.54 0.45 0.45 0.46 0.63 0.79
0.13 0.15 0.22 0.31 0.43 0.62 0.86 0.96 0.92 0.80 0.72 0.65 0.60 0.53 0.50 0.54 0.64 0.68 0.65 0.57 0.49 0.50 0.57 0.57 0.65 0.69 0.78 0.81 0.73 0.70 0.78 0.94 1.05 0.95 0.74 0.65 0.60 0.66
0.26 0.31 0.37 0.49 0.57 0.53 0.45 0.36 0.37 0.41 0.43 0.47 0.43 0.33 0.28 0.25 0.26 0.29 0.33 0.39 0.44 0.49 0.41 0.33 0.27 0.23 0.28 0.43 0.59 0.72 0.73 0.77 0.85 0.96 1.00 0.93 0.90 0.94
0.34 0.37 0.41 0.50 0.40 0.39 0.30 0.26 0.22 0.26 0.25 0.21 0.17 0.12 0.09 0.11 0.15 0.23 0.32 0.44 0.44 0.32 0.32 0.30 0.26 0.21 0.16 0.16 0.28 0.41 0.54 0.62 0.66 0.68 0.81 0.99 0.98 0.92
0.25 0.23 0.20 0.19 0.17 0.13 0.19 0.21 0.25 0.23 0.19 0.12 0.09 0.06 0.07 0.07 0.16 0.20 0.19 0.21 0.15 0.10 0.22 0.31 0.29 0.30 0.22 0.24 0.25 0.23 0.33 0.41 0.47 0.55 0.64 0.70 0.84 1.04
0.15 0.13 0.09 0.04 0.03 0.03 0.05 0.11 0.08 0.11 0.16 0.19 0.17 0.17 0.20 0.22 0.27 0.31 0.18 0.14 0.10 0.08 0.14 0.23 0.16 0.22 0.20 0.22 0.32 0.30 0.33 0.34 0.36 0.40 0.47 0.58 0.66 0.73
0.07 0.02 0.02 0.01 0.03 0.04 0.05 0.02 0.00 0.01 0.09 0.18 0.27 0.37 0.44 0.45 0.35 0.34 0.41 0.39 0.30 0.13 0.09 0.11 0.09 0.14 0.16 0.17 0.20 0.29 0.32 0.37 0.43 0.50 0.44 0.44 0.54 0.63
0.02 0.02 0.03 0.02 0.03 0.07 0.06 0.03 0.04 0.01 0.05 0.07 0.09 0.16 0.26 0.33 0.37 0.26 0.20 0.39 0.38 0.46 0.27 0.35 0.19 0.15 0.31 0.13 0.15 0.22 0.24 0.28 0.30 0.36 0.59 0.66 0.56 0.56
0.02 0.01 0.01 0.03 0.07 0.08 0.09 0.05 0.07 0.07 0.06 0.05 0.04 0.10 0.17 0.28 0.33 0.34 0.33 0.43 0.54 0.39 0.14 0.55 0.63 0.32 0.53 0.20 0.06 0.11 0.12 0.16 0.20 0.24 0.32 0.46 0.66 0.64
0.03 0.02 0.02 0.06 0.09 0.08 0.08 0.08 0.10 0.12 0.07 0.05 0.06 0.08 0.14 0.21 0.27 0.35 0.47 0.55 0.51 0.53 0.28 0.41 0.84 0.36 0.63 0.46 0.18 0.11 0.12 0.11 0.14 0.16 0.21 0.40 0.54 0.61
0.04 0.06 0.08 0.08 0.09 0.07 0.06 0.09 0.09 0.08 0.08 0.12 0.09 0.08 0.09 0.15 0.30 0.50 0.63 0.67 0.70 0.64 0.56 0.56 0.67 0.53 0.73 0.71 0.37 0.15 0.22 0.20 0.14 0.14 0.21 0.35 0.48 0.58
0.07 0.09 0.12 0.12 0.11 0.09 0.10 0.11 0.09 0.10 0.15 0.21 0.16 0.13 0.17 0.27 0.41 0.48 0.60 0.58 0.69 0.53 0.53 0.56 0.56 0.73 0.93 0.62 0.61 0.42 0.21 0.31 0.30 0.27 0.31 0.32 0.40 0.52
0.35 0.22 0.17 0.12 0.10 0.11 0.10 0.11 0.19 0.25 0.32 0.30 0.36 0.40 0.37 0.37 0.37 0.36 0.52 0.62 0.72 0.50 0.42 0.41 0.52 0.58 0.60 0.57 0.77 0.44 0.29 0.21 0.22 0.36 0.45 0.45 0.36 0.55
0.42 0.27 0.16 0.13 0.12 0.13 0.17 0.22 0.28 0.35 0.37 0.44 0.50 0.49 0.54 0.51 0.46 0.48 0.51 0.58 0.57 0.41 0.47 0.51 0.50 0.75 0.73 0.59 0.54 0.54 0.49 0.28 0.19 0.20 0.35 0.75 0.42 0.27
0.40 0.15 0.11 0.12 0.14 0.17 0.23 0.29 0.31 0.26 0.37 0.58 0.63 0.61 0.64 0.67 0.67 0.61 0.48 0.56 0.52 0.43 0.48 0.56 0.72 1.04 1.24 0.62 0.35 0.36 0.71 0.60 0.34 0.27 0.32 0.47 0.52 0.31
0.19 0.13 0.09 0.11 0.18 0.26 0.29 0.37 0.40 0.42 0.47 0.48 0.55 0.56 0.68 0.81 0.73 0.56 0.48 0.53 0.54 0.49 0.51 0.53 0.59 0.76 1.32 0.87 0.79 0.41 0.38 0.74 0.86 0.61 0.37 0.34 0.49 0.44
0.08 0.16 0.13 0.16 0.25 0.33 0.39 0.48 0.56 0.56 0.52 0.63 0.56 0.56 0.57 0.84 0.72 0.49 0.55 0.48 0.56 0.66 0.57 0.31 0.24 0.47 0.87 1.27 1.32 0.59 0.50 0.52 0.76 1.14 0.90 0.79 0.43 0.36
0.11 0.21 0.22 0.27 0.36 0.44 0.48 0.53 0.61 0.52 0.49 0.46 0.43 0.47 0.53 0.70 0.78 0.64 0.58 0.69 0.48 0.35 0.36 0.35 0.50 0.60 0.83 1.17 0.75 0.35 0.37 0.42 0.48 0.50 0.68 1.32 1.49 1.21
0.29 0.36 0.35 0.39 0.43 0.51 0.61 0.61 0.52 0.40 0.36 0.45 0.46 0.45 0.55 0.71 0.51 0.55 0.58 0.57 0.53 0.62 0.50 0.52 0.51 0.57 0.67 0.66 0.72 0.62 0.45 0.40 0.34 0.37 0.41 0.41 0.43 0.46

GFSNE_prec_precacc_156.txt.gz
Total_Precipitation_Accumulation
1.42 1.35 1.29 1.17 1.28 1.40 1.57 1.88 2.40 2.23 1.42 0.92 0.89 0.88 0.88 0.90 1.06 0.95 0.78 0.99 1.05 1.03 1.04 1.10 0.99 1.03 1.00 1.06 1.19 1.13 1.37 1.67 1.64 1.61 1.69 1.80 1.65 1.63
1.42 1.46 1.47 1.41 1.38 1.31 1.28 1.40 1.59 1.96 1.82 1.04 0.94 0.99 1.15 1.34 1.72 1.70 1.61 1.81 1.43 1.21 1.14 0.93 0.80 0.66 0.59 0.61 0.65 0.66 0.77 1.04 1.26 1.35 1.43 1.68 2.13 2.07
1.59 1.84 1.95 2.06 2.26 2.24 2.29 2.45 2.58 2.69 2.66 1.72 1.37 1.27 1.25 1.25 1.24 1.14 1.19 1.17 1.25 1.45 1.23 1.09 0.87 0.70 0.63 0.57 0.53 0.50 0.50 0.56 0.73 0.87 1.03 1.09 1.18 1.50
0.55 0.71 0.79 0.95 1.21 1.42 1.66 1.82 2.16 2.62 3.05 2.42 1.77 1.61 1.48 1.33 1.12 0.87 0.80 0.85 0.89 1.20 1.20 1.13 1.04 0.94 0.92 0.92 0.81 0.68 0.57 0.50 0.47 0.49 0.55 0.68 0.75 0.80
0.36 0.41 0.44 0.47 0.54 0.58 0.69 0.87 1.03 1.18 1.42 1.39 1.09 1.00 1.02 1.15 1.25 1.17 1.04 0.95 0.88 1.15 1.06 1.04 1.08 1.05 0.96 0.90 0.92 0.98 0.96 0.76 0.54 0.45 0.45 0.46 0.63 0.79
0.13 0.15 0.22 0.31 0.43 0.62 0.86 0.96 0.92 0.80 0.72 0.65 0.60 0.53 0.50 0.54 0.64 0.68 0.65 0.57 0.49 0.50 0.57 0.57 0.65 0.69 0.78 0.81 0.73 0.70 0.78 0.94 1.05 0.95 0.74 0.65 0.60 0.66
0.26 0.31 0.37 0.49 0.57 0.53 0.45 0.36 0.37 0.41 0.43 0.47 0.43 0.33 0.28 0.25 0.26 0.29 0.33 0.39 0.44 0.49 0.41 0.33 0.27 0.23 0.28 0.43 0.59 0.72 0.73 0.77 0.85 0.96 1.00 0.93 0.90 0.94
0.34 0.37 0.41 0.50 0.40 0.39 0.30 0.26 0.22 0.26 0.25 0.21 0.17 0.12 0.09 0.11 0.15 0.23 0.32 0.44 0.44 0.32 0.32 0.30 0.26 0.21 0.16 0.16 0.28 0.41 0.54 0.62 0.66 0.68 0.81 0.99 0.98 0.92
0.25 0.23 0.20 0.19 0.17 0.13 0.19 0.21 0.25 0.23 0.19 0.13 0.09 0.06 0.07 0.07 0.16 0.20 0.19 0.21 0.15 0.10 0.22 0.31 0.29 0.30 0.22 0.24 0.25 0.23 0.33 0.41 0.47 0.55 0.64 0.70 0.85 1.05
0.15 0.13 0.09 0.04 0.03 0.03 0.05 0.11 0.08 0.11 0.16 0.19 0.17 0.17 0.20 0.22 0.27 0.31 0.18 0.15 0.11 0.08 0.14 0.23 0.16 0.22 0.20 0.22 0.32 0.30 0.33 0.34 0.36 0.40 0.47 0.58 0.66 0.73
0.07 0.02 0.02 0.01 0.03 0.04 0.05 0.02 0.00 0.01 0.09 0.18 0.27 0.38 0.44 0.45 0.36 0.35 0.43 0.42 0.33 0.14 0.09 0.11 0.09 0.14 0.16 0.17 0.20 0.29 0.32 0.37 0.43 0.50 0.44 0.44 0.54 0.63
0.02 0.02 0.03 0.02 0.03 0.07 0.07 0.03 0.04 0.01 0.05 0.07 0.09 0.17 0.27 0.33 0.37 0.28 0.24 0.46 0.43 0.50 0.28 0.36 0.20 0.16 0.33 0.13 0.15 0.22 0.24 0.28 0.30 0.36 0.59 0.66 0.56 0.56
0.02 0.01 0.01 0.03 0.07 0.08 0.10 0.06 0.07 0.08 0.07 0.05 0.05 0.10 0.17 0.28 0.33 0.35 0.36 0.48 0.61 0.48 0.16 0.59 0.70 0.35 0.56 0.20 0.06 0.11 0.12 0.16 0.20 0.24 0.32 0.46 0.66 0.65
0.03 0.02 0.02 0.06 0.09 0.08 0.09 0.08 0.11 0.13 0.07 0.05 0.06 0.08 0.14 0.21 0.28 0.35 0.48 0.59 0.58 0.61 0.34 0.53 0.96 0.40 0.66 0.48 0.19 0.11 0.12 0.11 0.14 0.16 0.21 0.40 0.54 0.61
0.04 0.06 0.08 0.08 0.09 0.07 0.06 0.09 0.10 0.08 0.08 0.12 0.09 0.08 0.10 0.16 0.30 0.50 0.64 0.73 0.85 0.81 0.75 0.78 0.79 0.57 0.76 0.74 0.37 0.15 0.22 0.20 0.14 0.14 0.21 0.35 0.48 0.58
0.07 0.09 0.13 0.12 0.11 0.09 0.10 0.11 0.09 0.10 0.15 0.21 0.17 0.13 0.18 0.28 0.42 0.49 0.63 0.63 0.82 0.69 0.69 0.82 0.76 0.82 0.99 0.65 0.62 0.43 0.21 0.32 0.30 0.27 0.31 0.32 0.40 0.52
0.36 0.23 0.18 0.12 0.10 0.11 0.10 0.11 0.19 0.25 0.32 0.30 0.37 0.40 0.38 0.38 0.38 0.38 0.57 0.72 0.84 0.57 0.50 0.55 0.70 0.70 0.65 0.61 0.79 0.45 0.29 0.21 0.22 0.36 0.45 0.45 0.36 0.55
0.44 0.28 0.17 0.13 0.12 0.13 0.17 0.22 0.28 0.35 0.37 0.44 0.50 0.50 0.55 0.53 0.49 0.50 0.55 0.66 0.65 0.46 0.53 0.57 0.59 0.86 0.82 0.64 0.56 0.55 0.50 0.29 0.19 0.20 0.35 0.75 0.42 0.27
0.41 0.15 0.11 0.13 0.14 0.17 0.23 0.29 0.31 0.26 0.37 0.58 0.64 0.62 0.66 0.70 0.72 0.66 0.52 0.61 0.58 0.48 0.53 0.61 0.75 1.06 1.26 0.63 0.35 0.36 0.72 0.60 0.34 0.28 0.32 0.47 0.52 0.31
0.20 0.13 0.10 0.11 0.18 0.26 0.29 0.37 0.41 0.43 0.48 0.49 0.57 0.58 0.69 0.84 0.77 0.61 0.53 0.59 0.61 0.56 0.57 0.56 0.60 0.76 1.33 0.87 0.79 0.42 0.38 0.75 0.88 0.62 0.37 0.34 0.49 0.44
0.09 0.16 0.13 0.16 0.25 0.33 0.40 0.49 0.58 0.59 0.54 0.65 0.58 0.58 0.59 0.87 0.76 0.53 0.60 0.52 0.61 0.69 0.60 0.32 0.24 0.47 0.89 1.29 1.33 0.60 0.52 0.53 0.76 1.14 0.90 0.79 0.43 0.36
0.11 0.21 0.22 0.27 0.36 0.45 0.51 0.56 0.63 0.53 0.50 0.47 0.44 0.48 0.54 0.72 0.80 0.66 0.60 0.71 0.51 0.37 0.37 0.36 0.51 0.62 0.85 1.18 0.76 0.37 0.38 0.42 0.48 0.50 0.68 1.32 1.49 1.21
0.29 0.37 0.36 0.39 0.43 0.52 0.62 0.66 0.57 0.43 0.38 0.47 0.47 0.47 0.57 0.73 0.52 0.57 0.60 0.59 0.55 0.65 0.53 0.53 0.52 0.58 0.67 0.67 0.73 0.62 0.45 0.40 0.34 0.37 0.41 0.41 0.43 0.46